Time,TemperatureF,DewpointF,PressureIn,WindDirection,WindDirectionDegrees,WindSpeedMPH,WindSpeedGustMPH,Humidity,HourlyPrecipIn,Conditions,Clouds,dailyrainin,SoftwareType,DateUTC
2013-02-28 00:12:00,43.2,35.0,29.61,NW,315,2.0,3.0,72,0.00,,,0.00,weatherlink.com 1.10,2013-02-28 05:12:00,
2013-02-28 00:27:00,42.7,35.0,29.60,NW,315,0.0,0.0,73,0.00,,,0.00,weatherlink.com 1.10,2013-02-28 05:27:00,
2013-02-28 00:42:00,42.1,35.0,29.60,NW,315,0.0,0.0,76,0.00,,,0.00,weatherlink.com 1.10,2013-02-28 05:42:00,
2013-02-28 00:57:00,41.6,35.0,29.60,NW,315,0.0,0.0,76,0.00,,,0.00,weatherlink.com 1.10,2013-02-28 05:57:00,
2013-02-28 01:12:00,41.3,35.0,29.61,NW,315,0.0,0.0,78,0.00,,,0.00,weatherlink.com 1.10,2013-02-28 06:12:00,
2013-02-28 01:27:00,40.7,35.0,29.61,NW,315,0.0,2.0,80,0.00,,,0.00,weatherlink.com 1.10,2013-02-28 06:27:00,
2013-02-28 01:42:00,40.2,35.0,29.61,NW,315,0.0,0.0,82,0.00,,,0.00,weatherlink.com 1.10,2013-02-28 06:42:00,
2013-02-28 01:57:00,40.2,35.0,29.61,NNW,341,1.0,3.0,80,0.00,,,0.00,weatherlink.com 1.10,2013-02-28 06:57:00,
2013-02-28 02:12:00,42.0,33.0,29.61,NW,316,3.0,11.0,71,0.00,,,0.00,weatherlink.com 1.10,2013-02-28 07:12:00,
2013-02-28 02:27:00,42.5,33.0,29.60,NW,322,2.0,4.0,69,0.00,,,0.00,weatherlink.com 1.10,2013-02-28 07:27:00,
2013-02-28 02:42:00,42.2,32.0,29.60,NW,324,7.0,8.0,67,0.00,,,0.00,weatherlink.com 1.10,2013-02-28 07:42:00,
2013-02-28 02:57:00,41.6,32.0,29.61,NW,312,8.0,10.0,69,0.00,,,0.00,weatherlink.com 1.10,2013-02-28 07:57:00,
2013-02-28 03:12:00,40.9,32.0,29.61,NW,320,2.0,12.0,70,0.00,,,0.00,weatherlink.com 1.10,2013-02-28 08:12:00,
2013-02-28 03:27:00,40.2,31.0,29.60,NW,313,4.0,7.0,71,0.00,,,0.00,weatherlink.com 1.10,2013-02-28 08:27:00,
2013-02-28 03:42:00,39.5,31.0,29.60,NW,312,2.0,7.0,72,0.00,,,0.00,weatherlink.com 1.10,2013-02-28 08:42:00,
2013-02-28 03:57:00,38.9,31.0,29.61,NW,320,3.0,6.0,72,0.00,,,0.00,weatherlink.com 1.10,2013-02-28 08:57:00,
2013-02-28 04:12:00,38.7,30.0,29.61,NW,318,0.0,3.0,71,0.00,,,0.00,weatherlink.com 1.10,2013-02-28 09:12:00,
2013-02-28 04:27:00,37.8,30.0,29.61,WNW,290,2.0,4.0,72,0.00,,,0.00,weatherlink.com 1.10,2013-02-28 09:27:00,
2013-02-28 04:43:00,37.6,29.0,29.61,NW,312,1.0,7.0,70,0.00,,,0.00,weatherlink.com 1.10,2013-02-28 09:43:00,
2013-02-28 04:57:00,38.0,28.0,29.62,NW,319,4.0,5.0,67,0.00,,,0.00,weatherlink.com 1.10,2013-02-28 09:57:00,
2013-02-28 05:13:00,37.8,28.0,29.62,NW,309,1.0,2.0,67,0.00,,,0.00,weatherlink.com 1.10,2013-02-28 10:13:00,
2013-02-28 05:28:00,37.2,27.0,29.62,NW,307,3.0,6.0,67,0.00,,,0.00,weatherlink.com 1.10,2013-02-28 10:28:00,
2013-02-28 05:43:00,37.1,27.0,29.62,WNW,302,0.0,5.0,67,0.00,,,0.00,weatherlink.com 1.10,2013-02-28 10:43:00,
2013-02-28 05:58:00,35.7,27.0,29.63,WNW,302,0.0,0.0,71,0.00,,,0.00,weatherlink.com 1.10,2013-02-28 10:58:00,
2013-02-28 06:13:00,34.6,27.0,29.63,WNW,302,0.0,0.0,75,0.00,,,0.00,weatherlink.com 1.10,2013-02-28 11:13:00,
2013-02-28 06:28:00,34.2,27.0,29.63,WNW,302,0.0,1.0,76,0.00,,,0.00,weatherlink.com 1.10,2013-02-28 11:28:00,
2013-02-28 06:43:00,34.1,28.0,29.63,West,263,0.0,2.0,79,0.00,,,0.00,weatherlink.com 1.10,2013-02-28 11:43:00,
2013-02-28 06:58:00,34.3,28.0,29.63,West,277,0.0,3.0,77,0.00,,,0.00,weatherlink.com 1.10,2013-02-28 11:58:00,
2013-02-28 07:13:00,35.0,28.0,29.63,WSW,258,0.0,0.0,74,0.00,,,0.00,weatherlink.com 1.10,2013-02-28 12:13:00,
2013-02-28 07:28:00,35.7,28.0,29.62,WNW,296,0.0,4.0,73,0.00,,,0.00,weatherlink.com 1.10,2013-02-28 12:28:00,
2013-02-28 07:43:00,38.0,27.0,29.63,NW,304,3.0,9.0,65,0.00,,,0.00,weatherlink.com 1.10,2013-02-28 12:43:00,
2013-02-28 07:58:00,40.2,28.0,29.63,WNW,302,7.0,9.0,61,0.00,,,0.00,weatherlink.com 1.10,2013-02-28 12:58:00,
2013-02-28 08:13:00,40.3,26.0,29.63,NW,317,4.0,10.0,58,0.00,,,0.00,weatherlink.com 1.10,2013-02-28 13:13:00,
2013-02-28 08:28:00,40.2,26.0,29.63,WNW,301,3.0,13.0,58,0.00,,,0.00,weatherlink.com 1.10,2013-02-28 13:28:00,
2013-02-28 08:43:00,40.5,27.0,29.63,WSW,256,3.0,8.0,58,0.00,,,0.00,weatherlink.com 1.10,2013-02-28 13:43:00,
2013-02-28 08:58:00,40.7,26.0,29.63,NW,314,3.0,8.0,57,0.00,,,0.00,weatherlink.com 1.10,2013-02-28 13:58:00,
2013-02-28 09:13:00,40.7,27.0,29.63,West,277,0.0,11.0,58,0.00,,,0.00,weatherlink.com 1.10,2013-02-28 14:13:00,
2013-02-28 09:28:00,41.0,27.0,29.63,WNW,298,6.0,9.0,59,0.00,,,0.00,weatherlink.com 1.10,2013-02-28 14:28:00,
2013-02-28 09:43:00,41.7,28.0,29.62,West,281,5.0,14.0,58,0.00,,,0.00,weatherlink.com 1.10,2013-02-28 14:43:00,
2013-02-28 09:58:00,41.9,28.0,29.62,NW,310,2.0,12.0,58,0.00,,,0.00,weatherlink.com 1.10,2013-02-28 14:58:00,
2013-02-28 10:13:00,41.8,28.0,29.62,WNW,282,7.0,12.0,58,0.00,,,0.00,weatherlink.com 1.10,2013-02-28 15:13:00,
2013-02-28 10:28:00,41.7,27.0,29.62,NW,317,6.0,15.0,57,0.00,,,0.00,weatherlink.com 1.10,2013-02-28 15:28:00,
2013-02-28 10:43:00,41.4,27.0,29.63,NW,304,4.0,9.0,58,0.00,,,0.00,weatherlink.com 1.10,2013-02-28 15:43:00,
2013-02-28 10:58:00,41.6,28.0,29.63,WNW,302,4.0,16.0,58,0.00,,,0.00,weatherlink.com 1.10,2013-02-28 15:58:00,
2013-02-28 11:13:00,41.3,28.0,29.63,SW,234,3.0,13.0,59,0.00,,,0.00,weatherlink.com 1.10,2013-02-28 16:13:00,
2013-02-28 11:28:00,41.3,27.0,29.63,WNW,287,5.0,13.0,58,0.00,,,0.00,weatherlink.com 1.10,2013-02-28 16:28:00,
2013-02-28 11:43:00,42.1,28.0,29.63,NW,320,10.0,18.0,58,0.00,,,0.00,weatherlink.com 1.10,2013-02-28 16:43:00,
2013-02-28 11:58:00,41.9,27.0,29.63,NW,325,3.0,13.0,57,0.00,,,0.00,weatherlink.com 1.10,2013-02-28 16:58:00,
2013-02-28 12:13:00,40.9,27.0,29.63,WNW,298,5.0,10.0,59,0.00,,,0.00,weatherlink.com 1.10,2013-02-28 17:13:00,
2013-02-28 12:28:00,41.2,28.0,29.63,WNW,300,3.0,9.0,59,0.00,,,0.00,weatherlink.com 1.10,2013-02-28 17:28:00,
2013-02-28 12:43:00,41.7,27.0,29.62,NW,316,2.0,11.0,56,0.00,,,0.00,weatherlink.com 1.10,2013-02-28 17:43:00,
2013-02-28 12:58:00,41.9,26.0,29.62,NW,309,6.0,11.0,53,0.00,,,0.00,weatherlink.com 1.10,2013-02-28 17:58:00,
2013-02-28 13:13:00,42.3,25.0,29.62,NW,309,15.0,15.0,51,0.00,,,0.00,weatherlink.com 1.10,2013-02-28 18:13:00,
2013-02-28 13:28:00,42.3,26.0,29.61,WNW,296,4.0,15.0,52,0.00,,,0.00,weatherlink.com 1.10,2013-02-28 18:28:00,
2013-02-28 13:43:00,42.2,26.0,29.61,NW,306,1.0,8.0,53,0.00,,,0.00,weatherlink.com 1.10,2013-02-28 18:43:00,
2013-02-28 13:58:00,42.2,26.0,29.61,WNW,294,6.0,14.0,53,0.00,,,0.00,weatherlink.com 1.10,2013-02-28 18:58:00,
2013-02-28 14:13:00,42.8,26.0,29.61,NW,304,8.0,17.0,52,0.00,,,0.00,weatherlink.com 1.10,2013-02-28 19:13:00,
2013-02-28 14:28:00,42.8,26.0,29.61,NNW,328,6.0,14.0,52,0.00,,,0.00,weatherlink.com 1.10,2013-02-28 19:28:00,
2013-02-28 14:43:00,42.9,27.0,29.61,NNW,341,3.0,13.0,53,0.00,,,0.00,weatherlink.com 1.10,2013-02-28 19:43:00,
2013-02-28 14:58:00,43.1,27.0,29.61,NW,318,4.0,12.0,53,0.00,,,0.00,weatherlink.com 1.10,2013-02-28 19:58:00,
2013-02-28 15:13:00,43.1,27.0,29.61,NW,310,5.0,15.0,53,0.00,,,0.00,weatherlink.com 1.10,2013-02-28 20:13:00,
2013-02-28 15:28:00,42.5,28.0,29.62,NNW,346,6.0,15.0,56,0.00,,,0.00,weatherlink.com 1.10,2013-02-28 20:28:00,
2013-02-28 15:43:00,42.1,29.0,29.61,WNW,285,9.0,15.0,59,0.00,,,0.00,weatherlink.com 1.10,2013-02-28 20:43:00,
2013-02-28 15:58:00,42.0,28.0,29.61,NNW,345,4.0,13.0,58,0.00,,,0.00,weatherlink.com 1.10,2013-02-28 20:58:00,
2013-02-28 16:13:00,41.9,27.0,29.61,WNW,285,5.0,11.0,57,0.00,,,0.00,weatherlink.com 1.10,2013-02-28 21:13:00,
2013-02-28 16:28:00,41.6,28.0,29.62,NW,312,6.0,11.0,58,0.00,,,0.00,weatherlink.com 1.10,2013-02-28 21:28:00,
2013-02-28 16:58:00,41.1,29.0,29.62,NW,313,4.0,11.0,63,0.00,,,0.00,weatherlink.com 1.10,2013-02-28 21:58:00,
2013-02-28 17:28:00,39.7,29.0,29.64,NNW,343,3.0,8.0,67,0.00,,,0.00,weatherlink.com 1.10,2013-02-28 22:28:00,
2013-02-28 17:43:00,39.7,29.0,29.64,NNW,329,1.0,8.0,67,0.00,,,0.00,weatherlink.com 1.10,2013-02-28 22:43:00,
2013-02-28 17:58:00,39.7,29.0,29.65,SW,223,2.0,8.0,66,0.00,,,0.00,weatherlink.com 1.10,2013-02-28 22:58:00,
2013-02-28 18:14:00,40.2,28.0,29.66,West,262,2.0,10.0,63,0.00,,,0.00,weatherlink.com 1.10,2013-02-28 23:14:00,
2013-02-28 18:29:00,40.4,27.0,29.66,WNW,291,5.0,14.0,60,0.00,,,0.00,weatherlink.com 1.10,2013-02-28 23:29:00,
2013-02-28 18:44:00,40.9,27.0,29.67,WNW,303,11.0,14.0,58,0.00,,,0.00,weatherlink.com 1.10,2013-02-28 23:44:00,
2013-02-28 18:59:00,40.9,27.0,29.67,NW,308,2.0,13.0,58,0.00,,,0.00,weatherlink.com 1.10,2013-02-28 23:59:00,
2013-02-28 19:14:00,40.8,27.0,29.68,NW,319,3.0,8.0,59,0.00,,,0.00,weatherlink.com 1.10,2013-03-01 00:14:00,
2013-02-28 19:29:00,40.7,28.0,29.68,NNW,344,9.0,13.0,60,0.00,,,0.00,weatherlink.com 1.10,2013-03-01 00:29:00,
2013-02-28 19:44:00,40.6,28.0,29.67,NW,306,13.0,16.0,62,0.00,,,0.00,weatherlink.com 1.10,2013-03-01 00:44:00,
2013-02-28 19:59:00,40.5,29.0,29.68,WNW,303,6.0,10.0,63,0.00,,,0.00,weatherlink.com 1.10,2013-03-01 00:59:00,
2013-02-28 20:15:00,40.5,29.0,29.69,NW,314,4.0,8.0,63,0.00,,,0.00,weatherlink.com 1.10,2013-03-01 01:15:00,
2013-02-28 20:29:00,40.4,29.0,29.69,WNW,298,3.0,11.0,64,0.00,,,0.00,weatherlink.com 1.10,2013-03-01 01:29:00,
2013-02-28 20:44:00,40.5,29.0,29.69,NW,308,5.0,12.0,64,0.00,,,0.00,weatherlink.com 1.10,2013-03-01 01:44:00,
2013-02-28 20:59:00,40.5,29.0,29.69,NW,318,5.0,15.0,64,0.00,,,0.00,weatherlink.com 1.10,2013-03-01 01:59:00,
2013-02-28 21:14:00,40.6,29.0,29.70,NW,310,4.0,11.0,64,0.00,,,0.00,weatherlink.com 1.10,2013-03-01 02:14:00,
2013-02-28 21:29:00,40.4,29.0,29.70,NW,312,5.0,12.0,65,0.00,,,0.00,weatherlink.com 1.10,2013-03-01 02:29:00,
2013-02-28 21:44:00,40.3,30.0,29.70,NW,312,9.0,15.0,66,0.00,,,0.00,weatherlink.com 1.10,2013-03-01 02:44:00,
2013-02-28 21:59:00,40.1,30.0,29.70,NW,324,1.0,11.0,67,0.00,,,0.00,weatherlink.com 1.10,2013-03-01 02:59:00,
2013-02-28 22:14:00,40.0,30.0,29.70,NW,312,1.0,12.0,67,0.00,,,0.00,weatherlink.com 1.10,2013-03-01 03:14:00,
2013-02-28 22:29:00,39.9,30.0,29.70,NW,315,4.0,7.0,68,0.00,,,0.00,weatherlink.com 1.10,2013-03-01 03:29:00,
2013-02-28 22:44:00,39.8,30.0,29.70,NW,314,5.0,6.0,69,0.00,,,0.00,weatherlink.com 1.10,2013-03-01 03:44:00,
2013-02-28 23:00:00,39.7,30.0,29.70,NNW,333,4.0,7.0,69,0.00,,,0.00,weatherlink.com 1.10,2013-03-01 04:00:00,
2013-02-28 23:14:00,39.6,30.0,29.70,NW,312,3.0,7.0,69,0.00,,,0.00,weatherlink.com 1.10,2013-03-01 04:14:00,
2013-02-28 23:29:00,39.6,30.0,29.70,NW,326,4.0,8.0,69,0.00,,,0.00,weatherlink.com 1.10,2013-03-01 04:29:00,
2013-02-28 23:44:00,39.6,30.0,29.70,WNW,303,5.0,8.0,69,0.00,,,0.00,weatherlink.com 1.10,2013-03-01 04:44:00,
2013-02-28 23:59:00,39.6,30.0,29.70,NW,312,2.0,9.0,68,0.00,,,0.00,weatherlink.com 1.10,2013-03-01 04:59:00,